FW3222 Weather Reports


Display with metric or nautical units.
time (UTC)temp
F
wind
direction
speed
MPH
gust
MPH
rain 1hr
in
rain 24hr
in
rain mn
in
humidity
%
barometer
mb
20260502212708 56 294 3.0 11.0 0.00 0.02 0.00 31 1013.3
20260502212410 56 258 3.0 11.0 0.00 0.02 0.00 31 1013.3
20260502212058 55 274 3.0 10.0 0.00 0.02 0.00 30 1013.3
20260502211758 55 349 3.0 10.0 0.00 0.02 0.00 32 1013.2
20260502211457 55 307 4.0 11.0 0.00 0.02 0.00 31 1013.1
20260502211149 55 320 4.0 11.0 0.00 0.02 0.00 29 1013.2
20260502210415 55 329 4.0 11.0 0.00 0.02 0.00 29 1013.1
20260502210109 55 317 3.0 11.0 0.00 0.02 0.00 30 1013.1
20260502205809 55 259 2.0 11.0 0.00 0.02 0.00 31 1013.1
20260502205508 55 276 1.0 8.0 0.00 0.02 0.00 32 1013.1
20260502204754 55 314 2.0 8.0 0.00 0.02 0.00 32 1013.1
20260502204458 55 31 2.0 8.0 0.00 0.02 0.00 31 1013.1
20260502204149 55 342 1.0 7.0 0.00 0.02 0.00 34 1013.2
20260502203840 55 259 0.0 5.0 0.00 0.02 0.00 34 1013.2
20260502203529 55 232 1.0 3.0 0.00 0.02 0.00 33 1013.3
20260502203231 55 301 1.0 3.0 0.00 0.02 0.00 34 1013.2
20260502202916 55 215 1.0 6.0 0.00 0.02 0.00 32 1013.3
20260502202145 55 246 2.0 8.0 0.00 0.02 0.00 32 1013.2
20260502201417 54 279 2.0 8.0 0.00 0.02 0.00 34 1013.3
20260502200650 54 282 2.0 8.0 0.00 0.02 0.00 33 1013.4
20260502200337 54 290 2.0 8.0 0.00 0.02 0.00 34 1013.5
20260502200037 54 290 2.0 8.0 0.00 0.02 0.00 34 1013.7
20260502195736 54 274 2.0 8.0 0.00 0.02 0.00 34 1013.6
20260502195434 54 266 2.0 8.0 0.00 0.02 0.00 34 1013.7
20260502195131 54 241 2.0 8.0 0.00 0.02 0.00 34 1013.7
20260502194822 55 330 2.0 8.0 0.00 0.02 0.00 34 1013.7
20260502194520 55 302 2.0 7.0 0.00 0.02 0.00 34 1013.8
20260502194216 54 299 1.0 7.0 0.00 0.02 0.00 36 1013.8
20260502193907 54 240 2.0 7.0 0.00 0.02 0.00 36 1013.9
20260502193137 54 13 2.0 7.0 0.00 0.02 0.00 34 1013.9
20260502192834 54 312 2.0 8.0 0.00 0.02 0.00 33 1014.0
20260502192102 54 5 2.0 8.0 0.00 0.02 0.00 34 1014.1
20260502191800 54 0 2.0 8.0 0.00 0.02 0.00 35 1014.1
20260502191453 54 275 2.0 8.0 0.00 0.02 0.00 35 1014.2
20260502191155 54 275 2.0 8.0 0.00 0.02 0.00 35 1014.2
20260502190848 54 294 2.0 7.0 0.00 0.02 0.00 35 1014.2
20260502190546 55 314 2.0 7.0 0.00 0.02 0.00 34 1014.2
20260502190243 55 274 2.0 7.0 0.00 0.02 0.00 32 1014.3
20260502185947 55 23 2.0 7.0 0.00 0.02 0.00 32 1014.3
20260502185219 55 296 1.0 7.0 0.00 0.02 0.00 34 1014.3
20260502184913 55 28 1.0 4.0 0.00 0.02 0.00 32 1014.4
20260502184605 55 103 3.0 7.0 0.00 0.02 0.00 32 1014.4
20260502184304 55 11 3.0 7.0 0.00 0.02 0.00 32 1014.4
20260502184002 55 343 2.0 7.0 0.00 0.02 0.00 34 1014.5
20260502183653 54 355 2.0 7.0 0.00 0.02 0.00 33 1014.5
20260502183345 54 286 1.0 6.0 0.00 0.02 0.00 34 1014.6
20260502183034 54 289 1.0 6.0 0.00 0.02 0.00 33 1014.5
20260502182723 54 29 1.0 6.0 0.00 0.02 0.00 33 1014.6
20260502182414 54 91 0.0 5.0 0.00 0.02 0.00 34 1014.7
20260502182112 54 334 0.0 7.0 0.00 0.02 0.00 32 1014.7
20260502181353 54 5 2.0 7.0 0.00 0.02 0.00 37 1014.6
20260502180627 55 63 1.0 9.0 0.00 0.02 0.00 32 1014.6
20260502180324 55 344 1.0 9.0 0.00 0.02 0.00 33 1014.6
20260502170410 55 302 2.0 9.0 0.00 0.02 0.00 32 1014.8
20260502170107 55 0 2.0 10.0 0.00 0.02 0.00 28 1014.9
20260502164239 56 271 4.0 10.0 0.00 0.02 0.00 30 1015.1
20260502163936 56 246 3.0 13.0 0.00 0.02 0.00 30 1015.2
20260502163632 56 223 2.0 13.0 0.00 0.02 0.00 30 1015.2
20260502163325 56 317 2.0 13.0 0.00 0.02 0.00 29 1015.2
20260502163029 56 12 3.0 13.0 0.00 0.02 0.00 29 1015.2
20260502162300 57 288 3.0 13.0 0.00 0.02 0.00 29 1015.4
20260502161949 57 309 3.0 11.0 0.00 0.02 0.00 32 1015.4
20260502161642 56 53 3.0 11.0 0.00 0.02 0.00 31 1015.5
20260502161343 56 218 3.0 11.0 0.00 0.02 0.00 34 1015.6
20260502160617 56 24 2.0 11.0 0.00 0.02 0.00 32 1015.5
20260502160306 56 273 3.0 11.0 0.00 0.02 0.00 34 1015.7
20260502152055 53 63 2.0 8.0 0.00 0.02 0.00 38 1015.8
20260502151749 52 24 3.0 8.0 0.00 0.02 0.00 39 1015.8
20260502151450 52 13 3.0 8.0 0.00 0.02 0.00 38 1015.8
20260502151146 52 281 3.0 8.0 0.00 0.02 0.00 42 1015.8
20260502150848 52 332 2.0 8.0 0.00 0.02 0.00 41 1015.8
20260502150119 51 90 2.0 8.0 0.00 0.02 0.00 40 1015.9
20260502130103 48 283 1.0 4.0 0.00 0.02 0.00 51 1016.0
20260502123229 46 28 0.0 3.0 0.00 0.02 0.00 55 1016.0
20260502122455 46 285 0.0 2.0 0.00 0.02 0.00 58 1016.0
20260502121729 45 304 0.0 3.0 0.00 0.02 0.00 58 1016.0
20260502121002 45 222 0.0 0.0 0.00 0.02 0.00 58 1016.2
20260502120236 44 209 1.0 3.0 0.00 0.02 0.00 58 1016.1
20260502115513 44 250 1.0 4.0 0.00 0.02 0.00 58 1016.0
20260502115212 44 280 1.0 4.0 0.00 0.02 0.00 59 1016.0
20260502114907 44 284 1.0 4.0 0.00 0.02 0.00 59 1016.0
20260502114556 44 286 1.0 4.0 0.00 0.02 0.00 59 1016.0
20260502114249 44 246 1.0 4.0 0.00 0.02 0.00 59 1016.1
20260502113949 43 229 1.0 4.0 0.00 0.02 0.00 60 1016.0
20260502113645 43 37 1.0 4.0 0.00 0.02 0.00 60 1015.9
20260502112503 43 267 0.0 1.0 0.00 0.02 0.00 62 1015.9
20260502112207 42 232 0.0 0.0 0.00 0.02 0.00 62 1016.0
20260502111900 42 238 0.0 2.0 0.00 0.02 0.00 62 1016.0
20260502111600 42 220 0.0 0.0 0.00 0.02 0.00 62 1016.0
20260502111256 42 219 0.0 0.0 0.00 0.02 0.00 62 1015.9
20260502110958 42 216 0.0 0.0 0.00 0.02 0.00 62 1015.9
20260502110646 42 216 0.0 0.0 0.00 0.02 0.00 61 1015.8
20260502110349 42 216 0.0 0.0 0.00 0.02 0.00 61 1015.8
20260502110048 42 216 0.0 0.0 0.00 0.02 0.00 61 1015.7
20260502105735 42 221 0.0 0.0 0.00 0.02 0.00 62 1015.8
20260502105431 42 223 0.0 0.0 0.00 0.02 0.00 61 1015.7
20260502105133 42 197 0.0 0.0 0.00 0.02 0.00 61 1015.8
20260502104821 42 236 0.0 0.0 0.00 0.02 0.00 61 1015.8
20260502104520 42 236 0.0 0.0 0.00 0.02 0.00 61 1015.8
20260502104214 42 236 0.0 0.0 0.00 0.02 0.00 60 1015.8
20260502103908 42 236 0.0 0.0 0.00 0.02 0.00 60 1015.9
20260502103612 42 241 0.0 0.0 0.00 0.02 0.00 60 1015.9
20260502103307 42 188 0.0 5.0 0.00 0.02 0.00 60 1015.8
20260502103009 42 164 0.0 5.0 0.00 0.02 0.00 59 1015.8
20260502102705 42 192 0.0 5.0 0.00 0.02 0.00 59 1015.7
20260502102401 42 187 1.0 6.0 0.00 0.02 0.00 59 1015.7
20260502102050 42 139 1.0 6.0 0.00 0.02 0.00 59 1015.6
20260502101751 42 319 1.0 6.0 0.00 0.02 0.00 59 1015.6
20260502101454 42 334 1.0 8.0 0.00 0.02 0.00 59 1015.7
20260502101157 42 278 2.0 8.0 0.00 0.02 0.00 59 1015.7
20260502100859 42 348 2.0 8.0 0.00 0.02 0.00 59 1015.5
20260502100148 42 271 2.0 8.0 0.00 0.02 0.00 59 1015.4
20260502091518 44 234 2.0 6.0 0.00 0.02 0.00 60 1015.3
20260502091213 44 309 1.0 8.0 0.00 0.02 0.00 60 1015.3
20260502090904 44 15 1.0 8.0 0.00 0.02 0.00 61 1015.2
20260502090553 44 288 1.0 8.0 0.00 0.02 0.00 61 1015.2
20260502090257 44 306 2.0 8.0 0.00 0.02 0.00 61 1015.1
20260502071522 45 218 1.0 3.0 0.00 0.02 0.00 63 1014.1
20260502070753 45 213 0.0 4.0 0.00 0.02 0.00 63 1013.9
20260502065559 45 261 1.0 6.0 0.00 0.02 0.00 63 1013.4
20260502065256 45 306 1.0 8.0 0.00 0.02 0.00 63 1013.4
20260502064947 45 252 1.0 8.0 0.00 0.02 0.00 63 1013.5
20260502064640 45 275 1.0 8.0 0.00 0.02 0.00 64 1013.4
20260502064341 46 301 1.0 8.0 0.00 0.02 0.00 64 1013.5
20260502064033 45 278 1.0 8.0 0.00 0.02 0.00 64 1013.5
20260502063729 46 253 2.0 8.0 0.00 0.02 0.00 64 1013.6
20260502063428 46 279 1.0 8.0 0.00 0.02 0.00 64 1013.6
20260502063128 46 285 1.0 8.0 0.00 0.02 0.00 64 1013.6
20260502062822 46 294 1.0 8.0 0.00 0.02 0.00 65 1013.5
20260502062105 47 288 1.0 3.0 0.00 0.02 0.00 65 1013.8
20260502061802 47 281 1.0 3.0 0.00 0.02 0.00 65 1013.9
20260502060205 47 355 1.0 6.0 0.00 0.02 0.00 66 1013.9
20260502055854 47 265 0.0 6.0 0.00 0.02 0.00 66 1013.8
20260502055550 47 273 1.0 5.0 0.00 0.02 0.00 66 1013.7
20260502055250 48 252 1.0 5.0 0.00 0.02 0.00 67 1013.7
20260502054953 48 322 0.0 5.0 0.00 0.02 0.00 67 1013.8
20260502054650 48 304 0.0 5.0 0.00 0.02 0.00 67 1013.7
20260502054348 48 178 0.0 1.0 0.00 0.02 0.00 68 1013.6
20260502054035 48 247 0.0 1.0 0.00 0.02 0.00 68 1013.6
20260502053732 48 317 0.0 0.0 0.00 0.02 0.00 68 1013.5
20260502053434 48 272 0.0 2.0 0.00 0.02 0.00 67 1013.5
20260502053133 48 328 0.0 1.0 0.00 0.02 0.00 67 1013.5
20260502052415 48 194 0.0 0.0 0.00 0.02 0.00 67 1013.6
20260502052120 48 194 0.0 0.0 0.00 0.02 0.00 67 1013.8
20260502051808 48 194 0.0 0.0 0.00 0.02 0.00 67 1013.7
20260502051042 48 194 0.0 0.0 0.00 0.02 0.00 67 1013.7
20260502050317 49 255 0.0 0.0 0.00 0.02 0.00 66 1013.8
20260502050021 49 255 0.0 0.0 0.00 0.02 0.00 66 1013.7
20260502045255 49 270 0.0 0.0 0.00 0.02 0.00 66 1013.9
20260502044955 49 271 0.0 0.0 0.00 0.02 0.00 66 1013.9
20260502043806 49 312 0.0 0.0 0.00 0.02 0.00 66 1013.9
20260502043043 49 306 0.0 1.0 0.00 0.02 0.00 66 1014.0
20260502042742 49 300 0.0 1.0 0.00 0.02 0.00 66 1014.1
20260502042429 50 295 0.0 0.0 0.00 0.02 0.00 66 1014.1
20260502041653 50 288 0.0 0.0 0.00 0.02 0.00 66 1014.1
20260502041356 50 288 0.0 0.0 0.00 0.02 0.00 66 1014.0
20260502041051 50 288 0.0 0.0 0.00 0.02 0.00 66 1014.0
20260502040746 50 288 0.0 2.0 0.00 0.02 0.00 66 1013.8
20260502040442 50 277 0.0 1.0 0.00 0.02 0.00 66 1013.7
20260502040139 50 255 0.0 0.0 0.00 0.02 0.00 66 1013.8
20260502035835 50 292 0.0 0.0 0.00 0.02 0.02 66 1013.8
20260502035105 50 295 0.0 0.0 0.00 0.02 0.02 65 1013.6
20260502034801 50 295 0.0 0.0 0.00 0.02 0.02 65 1013.6
20260502034047 50 295 0.0 0.0 0.00 0.02 0.02 65 1013.7
20260502033735 51 295 0.0 0.0 0.00 0.01 0.01 65 1013.9
20260502033431 51 295 0.0 0.0 0.00 0.01 0.01 65 1013.9
20260502033125 51 296 0.0 0.0 0.00 0.01 0.01 65 1013.8
20260502032358 51 296 0.0 0.0 0.00 0.01 0.01 65 1013.9
20260502032051 51 69 0.0 0.0 0.00 0.01 0.01 64 1013.9
20260502031319 51 37 0.0 3.0 0.00 0.01 0.01 64 1014.1
20260502031007 51 304 1.0 3.0 0.00 0.00 0.00 64 1013.9
20260502030709 51 5 0.0 3.0 0.00 0.00 0.00 64 1013.8
20260502030412 51 331 0.0 3.0 0.00 0.00 0.00 64 1013.9
20260502030110 51 349 0.0 3.0 0.00 0.00 0.00 64 1013.9
20260502025812 51 309 0.0 0.0 0.00 0.00 0.00 63 1014.0
20260502025038 51 297 0.0 0.0 0.00 0.00 0.00 62 1014.1
20260502024726 51 297 0.0 1.0 0.00 0.00 0.00 62 1014.1
20260502024418 51 298 0.0 0.0 0.00 0.00 0.00 62 1014.0
20260502024117 51 309 0.0 0.0 0.00 0.00 0.00 62 1013.9
20260502023814 51 299 0.0 0.0 0.00 0.00 0.00 62 1013.9
20260502023514 51 5 0.0 0.0 0.00 0.00 0.00 62 1013.8
20260502022749 51 15 0.0 0.0 0.00 0.00 0.00 62 1013.9
20260502022452 51 15 0.0 0.0 0.00 0.00 0.00 62 1013.9
20260502022155 51 15 0.0 0.0 0.00 0.00 0.00 62 1013.8
20260502021859 51 15 0.0 0.0 0.00 0.00 0.00 62 1013.9
20260502021555 51 15 0.0 0.0 0.00 0.00 0.00 62 1014.0
20260502021244 51 37 0.0 0.0 0.00 0.00 0.00 62 1013.9
20260502020943 51 37 0.0 0.0 0.00 0.00 0.00 62 1013.8
20260502020645 51 58 0.0 0.0 0.00 0.00 0.00 62 1013.8
20260502020336 51 58 0.0 0.0 0.00 0.00 0.00 62 1013.8
20260502020028 51 58 0.0 0.0 0.00 0.00 0.00 62 1013.9
20260502015306 51 23 0.0 0.0 0.00 0.00 0.00 61 1013.8
20260502014543 51 11 0.0 0.0 0.00 0.00 0.00 61 1013.5
20260502013820 51 355 0.0 0.0 0.00 0.00 0.00 61 1013.5
20260502013520 51 16 0.0 3.0 0.00 0.00 0.00 61 1013.4
20260502013216 51 20 0.0 2.0 0.00 0.00 0.00 61 1013.4
20260502012920 52 337 1.0 0.0 0.00 0.00 0.00 61 1013.4
20260502012609 52 26 1.0 7.0 0.00 0.00 0.00 60 1013.3
20260502012300 52 36 1.0 7.0 0.00 0.00 0.00 60 1013.2
20260502011956 52 315 1.0 7.0 0.00 0.00 0.00 60 1013.1
20260502011657 52 32 1.0 5.0 0.00 0.00 0.00 60 1013.0
20260502011346 52 321 1.0 5.0 0.00 0.00 0.00 60 1012.8
20260502011049 52 343 1.0 4.0 0.00 0.00 0.00 60 1012.7
20260502010743 52 295 0.0 4.0 0.00 0.00 0.00 60 1012.6
20260502010443 52 326 0.0 4.0 0.00 0.00 0.00 60 1012.5
20260502010130 52 320 0.0 0.0 0.00 0.00 0.00 59 1012.4
20260502005818 52 341 0.0 0.0 0.00 0.00 0.00 59 1012.3
20260502005522 52 351 0.0 0.0 0.00 0.00 0.00 59 1012.2
20260502005225 52 344 0.0 1.0 0.00 0.00 0.00 58 1012.2
20260502004918 53 346 0.0 0.0 0.00 0.00 0.00 58 1012.1
20260502004606 53 335 0.0 1.0 0.00 0.00 0.00 58 1012.2
20260502004307 53 0 0.0 1.0 0.00 0.00 0.00 58 1012.1
20260502004002 53 355 0.0 1.0 0.00 0.00 0.00 58 1012.1
20260502003704 53 355 0.0 1.0 0.00 0.00 0.00 57 1012.1
20260502003357 53 10 0.0 0.0 0.00 0.00 0.00 57 1012.1
20260502002629 54 10 0.0 2.0 0.00 0.00 0.00 57 1011.9
20260502002323 54 40 0.0 2.0 0.00 0.00 0.00 57 1011.9
20260502001553 54 72 0.0 0.0 0.00 0.00 0.00 55 1011.9
20260502001253 55 71 0.0 0.0 0.00 0.00 0.00 55 1011.8
20260502000947 55 71 0.0 0.0 0.00 0.00 0.00 55 1011.8
20260502000646 55 71 0.0 3.0 0.00 0.00 0.00 55 1011.6
20260502000342 55 82 0.0 3.0 0.00 0.00 0.00 55 1011.5
20260502000029 55 115 0.0 3.0 0.00 0.00 0.00 54 1011.5
20260501235729 55 88 0.0 0.0 0.00 0.00 0.00 54 1011.5
20260501235421 56 40 0.0 0.0 0.00 0.00 0.00 54 1011.7
20260501235115 56 38 0.0 0.0 0.00 0.00 0.00 55 1011.5
20260501234805 56 83 0.0 0.0 0.00 0.00 0.00 54 1011.6
20260501234454 56 98 0.0 5.0 0.00 0.00 0.00 54 1011.5
20260501234146 56 95 1.0 5.0 0.00 0.00 0.00 54 1011.6
20260501233427 56 86 1.0 5.0 0.00 0.00 0.00 53 1011.5
20260501233129 57 76 1.0 3.0 0.00 0.00 0.00 53 1011.5
20260501232414 57 82 1.0 3.0 0.00 0.00 0.00 52 1011.5
20260501232106 57 63 0.0 3.0 0.00 0.00 0.00 53 1011.4
20260501231343 57 117 0.0 0.0 0.00 0.00 0.00 53 1011.5
20260501231040 57 163 0.0 0.0 0.00 0.00 0.00 52 1011.6
20260501230731 57 163 0.0 0.0 0.00 0.00 0.00 51 1011.5
20260501230012 57 163 0.0 0.0 0.00 0.00 0.00 51 1011.5
20260501225705 57 163 0.0 0.0 0.00 0.00 0.00 51 1011.5
20260501225359 58 218 0.0 5.0 0.00 0.00 0.00 51 1011.6
20260501225049 58 333 0.0 5.0 0.00 0.00 0.00 47 1011.5
20260501224738 58 148 0.0 0.0 0.00 0.00 0.00 51 1011.5
20260501224013 58 143 0.0 0.0 0.00 0.00 0.00 47 1011.6
20260501223704 59 236 2.0 7.0 0.00 0.00 0.00 45 1011.8
20260501223353 59 290 2.0 7.0 0.00 0.00 0.00 45 1012.0
20260501223046 59 294 1.0 7.0 0.00 0.00 0.00 43 1011.9
20260501222739 59 311 0.0 7.0 0.00 0.00 0.00 44 1011.9
20260501222029 60 205 0.0 6.0 0.00 0.00 0.00 43 1011.8
20260501221716 60 205 1.0 6.0 0.00 0.00 0.00 42 1011.8
20260501221408 60 279 0.0 6.0 0.00 0.00 0.00 40 1011.8
20260501220229 60 215 1.0 4.0 0.00 0.00 0.00 38 1011.6
20260501215923 60 299 1.0 4.0 0.00 0.00 0.00 38 1011.5
20260501215159 60 101 0.0 8.0 0.00 0.00 0.00 39 1011.4
20260501214858 60 117 1.0 8.0 0.00 0.00 0.00 38 1011.4
20260501214548 60 154 1.0 8.0 0.00 0.00 0.00 40 1011.3
20260501214243 60 114 1.0 8.0 0.00 0.00 0.00 40 1011.3
20260501213928 60 104 1.0 8.0 0.00 0.00 0.00 39 1011.3